Time,TemperatureF,DewpointF,PressureIn,WindDirection,WindDirectionDegrees,WindSpeedMPH,WindSpeedGustMPH,Humidity,HourlyPrecipIn,Conditions,Clouds,dailyrainin,SoftwareType,DateUTC
2016-02-11 00:04:00,46.0,33.0,30.34,ESE,106,2.0,2.0,60,-99.99,,,-99.99,,2016-02-11 08:04:00,
2016-02-11 00:44:00,43.0,32.0,30.33,ENE,58,4.0,5.0,65,-99.99,,,-99.99,,2016-02-11 08:44:00,
2016-02-11 00:53:00,43.0,32.0,30.33,NE,46,4.0,5.0,64,-99.99,,,-99.99,,2016-02-11 08:53:00,
2016-02-11 01:33:00,44.0,32.0,30.32,ENE,75,2.0,4.0,62,-99.99,,,-99.99,,2016-02-11 09:33:00,
2016-02-11 01:46:00,42.0,32.0,30.33,NNW,345,1.0,2.0,67,-99.99,,,-99.99,,2016-02-11 09:46:00,
2016-02-11 01:54:00,42.0,32.0,30.33,NNW,345,1.0,2.0,67,-99.99,,,-99.99,,2016-02-11 09:54:00,
2016-02-11 02:04:00,42.0,32.0,30.32,ENE,72,2.0,4.0,66,-99.99,,,-99.99,,2016-02-11 10:04:00,
2016-02-11 02:13:00,42.0,32.0,30.33,NE,54,3.0,4.0,67,-99.99,,,-99.99,,2016-02-11 10:13:00,
2016-02-11 03:03:00,41.0,32.0,30.32,WNW,296,2.0,3.0,70,-99.99,,,-99.99,,2016-02-11 11:03:00,
2016-02-11 03:13:00,42.0,32.0,30.32,NW,312,3.0,3.0,67,-99.99,,,-99.99,,2016-02-11 11:13:00,
2016-02-11 03:20:00,40.0,32.0,30.31,ENE,69,1.0,2.0,72,-99.99,,,-99.99,,2016-02-11 11:20:00,
2016-02-11 03:23:00,42.0,32.0,30.32,NNE,20,2.0,4.0,68,-99.99,,,-99.99,,2016-02-11 11:23:00,
2016-02-11 03:43:00,41.0,32.0,30.32,ESE,117,1.0,2.0,70,-99.99,,,-99.99,,2016-02-11 11:43:00,
2016-02-11 03:54:00,41.0,32.0,30.31,ESE,108,1.0,2.0,70,-99.99,,,-99.99,,2016-02-11 11:54:00,
2016-02-11 04:03:00,40.0,32.0,30.31,ENE,69,1.0,2.0,72,-99.99,,,-99.99,,2016-02-11 12:03:00,
2016-02-11 05:03:00,39.0,32.0,30.31,NW,324,0.0,2.0,75,-99.99,,,-99.99,,2016-02-11 13:03:00,
2016-02-11 05:13:00,39.0,32.0,30.31,NW,324,0.0,2.0,75,-99.99,,,-99.99,,2016-02-11 13:13:00,
2016-02-11 05:20:00,38.0,31.0,30.31,SW,219,1.0,3.0,75,-99.99,,,-99.99,,2016-02-11 13:20:00,
2016-02-11 05:44:00,40.0,32.0,30.31,SSE,166,0.0,2.0,72,-99.99,,,-99.99,,2016-02-11 13:44:00,
2016-02-11 06:03:00,38.0,31.0,30.31,SW,219,1.0,3.0,75,-99.99,,,-99.99,,2016-02-11 14:03:00,
2016-02-11 06:43:00,37.0,30.0,30.31,ENE,61,2.0,3.0,77,-99.99,,,-99.99,,2016-02-11 14:43:00,
2016-02-11 06:53:00,37.0,30.0,30.31,ENE,61,2.0,3.0,77,-99.99,,,-99.99,,2016-02-11 14:53:00,
2016-02-11 07:33:00,40.0,29.0,30.31,SSW,213,1.0,2.0,64,-99.99,,,-99.99,,2016-02-11 15:33:00,
2016-02-11 07:43:00,39.0,29.0,30.31,NW,312,1.0,2.0,66,-99.99,,,-99.99,,2016-02-11 15:43:00,
2016-02-11 08:05:00,39.0,28.0,30.32,East,84,1.0,2.0,66,-99.99,,,-99.99,,2016-02-11 16:05:00,
2016-02-11 08:13:00,38.0,29.0,30.32,ENE,64,0.0,-999.0,70,-99.99,,,-99.99,,2016-02-11 16:13:00,
2016-02-11 08:33:00,39.0,29.0,30.32,ENE,69,2.0,4.0,66,-99.99,,,-99.99,,2016-02-11 16:33:00,
2016-02-11 08:43:00,40.0,29.0,30.33,East,96,1.0,3.0,65,-99.99,,,-99.99,,2016-02-11 16:43:00,
2016-02-11 08:50:00,40.0,30.0,30.33,SSW,211,1.0,3.0,69,-99.99,,,-99.99,,2016-02-11 16:50:00,
2016-02-11 09:03:00,38.0,30.0,30.33,ENE,63,4.0,6.0,72,-99.99,,,-99.99,,2016-02-11 17:03:00,
2016-02-11 09:12:00,38.0,30.0,30.33,ENE,66,2.0,-999.0,73,-99.99,,,-99.99,,2016-02-11 17:12:00,
2016-02-11 09:30:00,43.0,32.0,30.34,East,94,2.0,4.0,63,-99.99,,,-99.99,,2016-02-11 17:30:00,
2016-02-11 09:35:00,40.0,30.0,30.33,SSW,211,1.0,3.0,69,-99.99,,,-99.99,,2016-02-11 17:35:00,
2016-02-11 10:04:00,42.0,32.0,30.34,SSW,200,1.0,4.0,65,-99.99,,,-99.99,,2016-02-11 18:04:00,
2016-02-11 10:12:00,43.0,32.0,30.34,East,94,2.0,4.0,63,-99.99,,,-99.99,,2016-02-11 18:12:00,
2016-02-11 10:23:00,43.0,32.0,30.34,East,94,2.0,4.0,63,-99.99,,,-99.99,,2016-02-11 18:23:00,
2016-02-11 11:04:00,46.0,32.0,30.33,SSE,167,1.0,3.0,56,-99.99,,,-99.99,,2016-02-11 19:04:00,
2016-02-11 11:13:00,48.0,31.0,30.33,SSE,164,2.0,4.0,51,-99.99,,,-99.99,,2016-02-11 19:13:00,
2016-02-11 11:23:00,48.0,31.0,30.33,SSE,164,2.0,4.0,51,-99.99,,,-99.99,,2016-02-11 19:23:00,
2016-02-11 11:44:00,49.0,27.0,30.33,SSW,194,3.0,6.0,43,-99.99,,,-99.99,,2016-02-11 19:44:00,
2016-02-11 11:53:00,50.0,28.0,30.32,SSE,152,1.0,4.0,42,-99.99,,,-99.99,,2016-02-11 19:53:00,
2016-02-11 12:03:00,51.0,28.0,30.32,South,185,2.0,4.0,41,-99.99,,,-99.99,,2016-02-11 20:03:00,
2016-02-11 12:13:00,50.0,28.0,30.32,ESE,119,2.0,6.0,42,-99.99,,,-99.99,,2016-02-11 20:13:00,
2016-02-11 12:34:00,52.0,29.0,30.31,ESE,121,2.0,6.0,40,-99.99,,,-99.99,,2016-02-11 20:34:00,
2016-02-11 12:43:00,51.0,29.0,30.30,SE,130,2.0,4.0,42,-99.99,,,-99.99,,2016-02-11 20:43:00,
2016-02-11 12:53:00,51.0,29.0,30.30,ESE,118,3.0,5.0,43,-99.99,,,-99.99,,2016-02-11 20:53:00,
2016-02-11 13:03:00,51.0,29.0,30.30,ESE,106,2.0,4.0,42,-99.99,,,-99.99,,2016-02-11 21:03:00,
2016-02-11 13:13:00,51.0,29.0,30.29,East,97,1.0,3.0,41,-99.99,,,-99.99,,2016-02-11 21:13:00,
2016-02-11 13:34:00,52.0,28.0,30.29,ESE,114,3.0,5.0,40,-99.99,,,-99.99,,2016-02-11 21:34:00,
2016-02-11 13:43:00,52.0,28.0,30.28,ESE,117,3.0,4.0,40,-99.99,,,-99.99,,2016-02-11 21:43:00,
2016-02-11 14:04:00,53.0,28.0,30.27,East,88,2.0,4.0,39,-99.99,,,-99.99,,2016-02-11 22:04:00,
2016-02-11 14:33:00,54.0,28.0,30.26,East,94,1.0,3.0,37,-99.99,,,-99.99,,2016-02-11 22:33:00,
2016-02-11 14:43:00,54.0,28.0,30.26,SE,135,1.0,2.0,36,-99.99,,,-99.99,,2016-02-11 22:43:00,
2016-02-11 15:00:00,54.0,28.0,30.26,ENE,68,1.0,3.0,36,-99.99,,,-99.99,,2016-02-11 23:00:00,
2016-02-11 15:13:00,54.0,27.0,30.26,ESE,106,2.0,-999.0,35,-99.99,,,-99.99,,2016-02-11 23:13:00,
2016-02-11 15:33:00,55.0,28.0,30.26,SE,134,1.0,3.0,36,-99.99,,,-99.99,,2016-02-11 23:33:00,
2016-02-11 15:53:00,54.0,28.0,30.26,ENE,68,1.0,3.0,36,-99.99,,,-99.99,,2016-02-11 23:53:00,
2016-02-11 16:43:00,54.0,30.0,30.26,East,88,2.0,3.0,40,-99.99,,,-99.99,,2016-02-12 00:43:00,
2016-02-11 16:53:00,54.0,30.0,30.26,ENE,71,1.0,2.0,40,-99.99,,,-99.99,,2016-02-12 00:53:00,
2016-02-11 17:04:00,55.0,30.0,30.27,ENE,57,1.0,3.0,39,-99.99,,,-99.99,,2016-02-12 01:04:00,
2016-02-11 17:13:00,55.0,30.0,30.27,NE,56,1.0,3.0,39,-99.99,,,-99.99,,2016-02-12 01:13:00,
2016-02-11 17:23:00,55.0,31.0,30.27,NE,41,1.0,3.0,40,-99.99,,,-99.99,,2016-02-12 01:23:00,
2016-02-11 17:33:00,54.0,31.0,30.27,NE,53,2.0,4.0,42,-99.99,,,-99.99,,2016-02-12 01:33:00,
2016-02-11 17:44:00,54.0,32.0,30.27,NE,34,2.0,3.0,43,-99.99,,,-99.99,,2016-02-12 01:44:00,
2016-02-11 17:50:00,52.0,32.0,30.27,NE,52,1.0,1.0,46,-99.99,,,-99.99,,2016-02-12 01:50:00,
2016-02-11 17:53:00,54.0,32.0,30.26,NE,38,1.0,3.0,43,-99.99,,,-99.99,,2016-02-12 01:53:00,
2016-02-11 18:04:00,53.0,32.0,30.27,NE,48,1.0,3.0,44,-99.99,,,-99.99,,2016-02-12 02:04:00,
2016-02-11 18:13:00,53.0,32.0,30.27,ENE,66,2.0,3.0,45,-99.99,,,-99.99,,2016-02-12 02:13:00,
2016-02-11 18:34:00,52.0,32.0,30.27,NE,52,1.0,1.0,46,-99.99,,,-99.99,,2016-02-12 02:34:00,
2016-02-11 18:44:00,52.0,32.0,30.27,NE,52,1.0,1.0,46,-99.99,,,-99.99,,2016-02-12 02:44:00,
2016-02-11 19:05:00,51.0,32.0,30.28,West,267,0.0,1.0,48,-99.99,,,-99.99,,2016-02-12 03:05:00,
2016-02-11 19:13:00,51.0,33.0,30.28,SE,143,1.0,4.0,50,-99.99,,,-99.99,,2016-02-12 03:13:00,
2016-02-11 19:23:00,51.0,34.0,30.29,ESE,121,2.0,4.0,53,-99.99,,,-99.99,,2016-02-12 03:23:00,
2016-02-11 19:43:00,50.0,34.0,30.29,NE,39,2.0,3.0,54,-99.99,,,-99.99,,2016-02-12 03:43:00,
2016-02-11 19:54:00,51.0,34.0,30.29,ENE,72,2.0,3.0,53,-99.99,,,-99.99,,2016-02-12 03:54:00,
2016-02-11 20:12:00,51.0,34.0,30.29,ENE,74,-999.9,-999.0,54,-99.99,,,-99.99,,2016-02-12 04:12:00,
2016-02-11 20:36:00,49.0,34.0,30.28,ENE,62,4.0,5.0,56,-99.99,,,-99.99,,2016-02-12 04:36:00,